Weather History for Phillips, WI

Change the Weather History Date:

Sunday, November 13, 2011

  Actual Average Record
Temperature  
Mean Temperature 45 °F -  
Max Temperature 48 °F 38 °F 64 °F (1999)
Min Temperature 42 °F 24 °F 6 °F (1996)
Degree Days  
Heating Degree Days 20    
Moisture  
Dew Point 37 °F    
Average Humidity 71    
Maximum Humidity 81    
Minimum Humidity 61    
Precipitation  
Precipitation 0.00 in - - ()
Sea Level Pressure  
Sea Level Pressure 29.25 in    
Wind  
Wind Speed 7 mph (SSW)    
Max Wind Speed 13 mph    
Max Gust Speed 16 mph    
Visibility 10 miles    
Events      
Averages and records for this station are not official NWS values.
T = Trace of Precipitation, MM = Missing Value Source: NWS Daily Summary

Daily Weather History Graph

Daily Weather History Graph

Search for Another Location

Airport:

Trip Planner

Search our weather history database for the weather conditions in past years. The results will help you decide how hot, cold, wet, or windy it might be!

Date:

Astronomy

Nov. 13, 2011 Rise Set
Actual Time 6:58 AM CST 4:33 PM CST
Civil Twilight 6:26 AM CST 5:05 PM CST
Nautical Twilight 5:50 AM CST 5:41 PM CST
Astronomical Twilight 5:15 AM CST 6:15 PM CST
Moon 6:36 PM CST (11/13) 9:36 AM CST (11/13)
Length of Visible Light 10h 39m
Length of Day
9h 35m
Waning Gibbous, 92% of the Moon is Illuminated
Nov 13
Waning Gibbous
Nov 18
Last Quarter
Nov 25
New
Dec 2
First Quarter
Dec 10
Full

Hourly Weather History & Observations

Time (CST) Temp. Windchill Dew Point Humidity Pressure Visibility Wind Dir Wind Speed Gust Speed Precip Events Conditions
12:35 AM 46.4 °F 42.4 °F 37.4 °F 71% 29.26 in 10.0 mi South 8.1 mph - N/A   Clear
12:55 AM 46.4 °F 41.1 °F 37.4 °F 71% 29.25 in 10.0 mi South 11.5 mph - N/A   Clear
1:15 AM 46.4 °F 42.4 °F 37.4 °F 71% 29.24 in 10.0 mi South 8.1 mph 16.1 mph N/A   Clear
1:35 AM 46.4 °F 40.7 °F 37.4 °F 71% 29.23 in 10.0 mi South 12.7 mph - N/A   Clear
2:15 AM 46.4 °F 41.9 °F 37.4 °F 71% 29.22 in 10.0 mi South 9.2 mph - N/A   Clear
2:35 AM 46.4 °F 41.9 °F 37.4 °F 71% 29.23 in 10.0 mi South 9.2 mph - N/A   Clear
2:55 AM 44.6 °F 39.2 °F 35.6 °F 71% 29.21 in 10.0 mi South 10.4 mph 16.1 mph N/A   Clear
3:15 AM 44.6 °F 39.7 °F 35.6 °F 71% 29.22 in 10.0 mi South 9.2 mph - N/A   Clear
3:35 AM 44.6 °F 40.2 °F 37.4 °F 76% 29.21 in 10.0 mi South 8.1 mph - N/A   Clear
3:55 AM 44.6 °F 39.2 °F 37.4 °F 76% 29.21 in 10.0 mi South 10.4 mph - N/A   Clear
4:15 AM 44.6 °F 39.2 °F 37.4 °F 76% 29.21 in 10.0 mi South 10.4 mph - N/A   Clear
4:35 AM 44.6 °F 39.7 °F 37.4 °F 76% 29.20 in 10.0 mi South 9.2 mph - N/A   Clear
4:55 AM 44.6 °F 40.2 °F 37.4 °F 76% 29.20 in 10.0 mi South 8.1 mph - N/A   Clear
5:35 AM 42.8 °F 38.0 °F 37.4 °F 81% 29.21 in 10.0 mi SSW 8.1 mph - N/A   Clear
6:15 AM 42.8 °F 40.1 °F 37.4 °F 81% 29.21 in 10.0 mi South 4.6 mph - N/A   Clear
6:55 AM 42.8 °F 39.3 °F 37.4 °F 81% 29.20 in 10.0 mi South 5.8 mph - N/A   Clear
7:35 AM 42.8 °F 38.6 °F 37.4 °F 81% 29.22 in 10.0 mi SSW 6.9 mph - N/A   Clear
7:55 AM 44.6 °F 40.7 °F 37.4 °F 76% 29.23 in 10.0 mi SSW 6.9 mph - N/A   Clear
8:15 AM 44.6 °F 40.7 °F 37.4 °F 76% 29.23 in 10.0 mi SSW 6.9 mph - N/A   Clear
8:35 AM 44.6 °F 42.2 °F 37.4 °F 76% 29.22 in 10.0 mi SSW 4.6 mph - N/A   Clear
8:55 AM 46.4 °F 42.4 °F 37.4 °F 71% 29.23 in 10.0 mi SSW 8.1 mph - N/A   Clear
9:15 AM 46.4 °F 41.9 °F 37.4 °F 71% 29.23 in 10.0 mi SW 9.2 mph - N/A   Clear
9:35 AM 46.4 °F 45.2 °F 37.4 °F 71% 29.23 in 10.0 mi SSW 3.5 mph - N/A   Clear
9:55 AM 46.4 °F 43.5 °F 37.4 °F 71% 29.23 in 10.0 mi SSW 5.8 mph - N/A   Clear
10:15 AM 46.4 °F 42.4 °F 37.4 °F 71% 29.24 in 10.0 mi SW 8.1 mph - N/A   Clear
10:35 AM 46.4 °F 44.3 °F 37.4 °F 71% 29.24 in 10.0 mi SSW 4.6 mph - N/A   Scattered Clouds
10:55 AM 48.2 °F - 37.4 °F 66% 29.24 in 10.0 mi Calm Calm - N/A   Clear
11:15 AM 48.2 °F - 37.4 °F 66% 29.23 in 10.0 mi Calm Calm - N/A   Scattered Clouds
11:35 AM 48.2 °F - 37.4 °F 66% 29.22 in 10.0 mi Calm Calm - N/A   Clear
11:55 AM 48.2 °F - 37.4 °F 66% 29.22 in 10.0 mi Calm Calm - N/A   Clear
12:15 PM 48.2 °F - 37.4 °F 66% 29.22 in 10.0 mi SSW 6.9 mph - N/A   Scattered Clouds
12:35 PM 48.2 °F - 37.4 °F 66% 29.21 in 10.0 mi SSW 6.9 mph - N/A   Scattered Clouds
12:55 PM 48.2 °F - 37.4 °F 66% 29.20 in 10.0 mi SSW 6.9 mph - N/A   Scattered Clouds
1:15 PM 48.2 °F - 37.4 °F 66% 29.20 in 10.0 mi SSW 8.1 mph - N/A   Mostly Cloudy
1:35 PM 48.2 °F - 37.4 °F 66% 29.20 in 10.0 mi SW 4.6 mph - N/A   Mostly Cloudy
1:55 PM 48.2 °F - 37.4 °F 66% 29.20 in 10.0 mi Calm Calm - N/A   Mostly Cloudy
2:15 PM 48.2 °F - 35.6 °F 62% 29.22 in 10.0 mi SW 5.8 mph - N/A   Mostly Cloudy
2:35 PM 48.2 °F - 35.6 °F 62% 29.24 in 10.0 mi SW 4.6 mph - N/A   Mostly Cloudy
2:55 PM 48.2 °F - 35.6 °F 62% 29.25 in 10.0 mi SW 6.9 mph - N/A   Mostly Cloudy
3:15 PM 48.2 °F - 35.6 °F 62% 29.26 in 10.0 mi SW 5.8 mph - N/A   Scattered Clouds
3:35 PM 48.2 °F - 35.6 °F 62% 29.26 in 10.0 mi SW 8.1 mph - N/A   Clear
3:55 PM 48.2 °F - 37.4 °F 66% 29.26 in 10.0 mi SW 5.8 mph - N/A   Clear
4:15 PM 46.4 °F 45.2 °F 37.4 °F 71% 29.27 in 10.0 mi SW 3.5 mph - N/A   Clear
4:35 PM 46.4 °F 44.3 °F 37.4 °F 71% 29.28 in 10.0 mi SW 4.6 mph - N/A   Scattered Clouds
4:55 PM 46.4 °F 45.2 °F 37.4 °F 71% 29.29 in 10.0 mi SW 3.5 mph - N/A   Overcast
5:15 PM 46.4 °F 45.2 °F 37.4 °F 71% 29.30 in 10.0 mi SW 3.5 mph - N/A   Overcast
5:35 PM 44.6 °F 42.2 °F 37.4 °F 76% 29.30 in 10.0 mi SW 4.6 mph - N/A   Scattered Clouds
5:55 PM 44.6 °F 43.1 °F 37.4 °F 76% 29.31 in 10.0 mi SW 3.5 mph - N/A   Scattered Clouds
6:15 PM 44.6 °F - 37.4 °F 76% 29.31 in 10.0 mi Calm Calm - N/A   Scattered Clouds
6:35 PM 42.8 °F 38.6 °F 37.4 °F 81% 29.33 in 10.0 mi SW 6.9 mph - N/A   Scattered Clouds
6:55 PM 44.6 °F 42.2 °F 35.6 °F 71% 29.33 in 10.0 mi SW 4.6 mph - N/A   Scattered Clouds
7:15 PM 44.6 °F 39.7 °F 35.6 °F 71% 29.34 in 10.0 mi WSW 9.2 mph - N/A   Mostly Cloudy
7:35 PM 44.6 °F 41.4 °F 33.8 °F 66% 29.34 in 10.0 mi WSW 5.8 mph - N/A   Overcast
7:55 PM 44.6 °F 41.4 °F 33.8 °F 66% 29.36 in 10.0 mi WSW 5.8 mph - N/A   Mostly Cloudy
8:15 PM 44.6 °F - 32.0 °F 61% 29.35 in 10.0 mi Calm Calm - N/A   Overcast
8:55 PM 44.6 °F 41.4 °F 33.8 °F 66% 29.37 in 10.0 mi WSW 5.8 mph - N/A   Scattered Clouds
9:15 PM 44.6 °F - 33.8 °F 66% 29.39 in 10.0 mi Calm Calm - N/A   Mostly Cloudy
9:35 PM 44.6 °F 41.4 °F 33.8 °F 66% 29.40 in 10.0 mi WSW 5.8 mph - N/A   Overcast
9:55 PM 42.8 °F 41.1 °F 33.8 °F 70% 29.41 in 10.0 mi WSW 3.5 mph - N/A   Overcast
10:15 PM 42.8 °F 38.0 °F 33.8 °F 70% 29.43 in 10.0 mi WSW 8.1 mph 19.6 mph N/A   Overcast
10:35 PM 41.0 °F 33.9 °F 33.8 °F 76% 29.43 in 10.0 mi WSW 12.7 mph 17.3 mph N/A   Overcast
10:55 PM 39.2 °F 33.6 °F 32.0 °F 75% 29.44 in 10.0 mi WSW 8.1 mph - N/A   Scattered Clouds
11:15 PM 39.2 °F 37.0 °F 32.0 °F 75% 29.44 in 10.0 mi WSW 3.5 mph - N/A   Clear
11:35 PM 39.2 °F 37.0 °F 32.0 °F 75% 29.46 in 10.0 mi WSW 3.5 mph - N/A   Clear
11:55 PM 37.4 °F - 32.0 °F 81% 29.47 in 10.0 mi Calm Calm - N/A   Clear